• In Deutschland
  • Länderverzeichnis
  • Für 7 Tage
  • Wassertemperatur
  • Satellitenkarten
  • Wetterkarte
  • Widgets
  • user-avatar
    Anmelden

    Stündliche Wetter Emmendingen

    Heute, 22 Juni, Freitag

    Zeit Temperatur Niederschläge Wind Luftdruck Luftfeuchtigkeit
    00:00 +12°C° 0 mm 2 m/S 748 mmHg 82%
    01:00 +10°C° 0 mm 2 m/S 749 mmHg 84%
    02:00 +9°C° 0 mm 2 m/S 749 mmHg 85%
    03:00 +10°C° 0 mm 1 m/S 749 mmHg 87%
    04:00 +9°C° 0 mm 1 m/S 749 mmHg 88%
    05:00 +10°C° 0 mm 1 m/S 749 mmHg 84%
    06:00 +10°C° 0 mm 2 m/S 750 mmHg 79%
    07:00 +12°C° 0 mm 2 m/S 750 mmHg 74%
    08:00 +14°C° 0 mm 2 m/S 750 mmHg 67%
    09:00 +14°C° 0 mm 3 m/S 750 mmHg 59%
    10:00 +17°C° 0 mm 3 m/S 750 mmHg 52%
    11:00 +18°C° 0 mm 3 m/S 750 mmHg 51%
    12:00 +18°C° 0 mm 3 m/S 750 mmHg 51%
    13:00 +19°C° 0 mm 4 m/S 749 mmHg 50%
    14:00 +19°C° 0 mm 4 m/S 749 mmHg 52%
    15:00 +19°C° 0 mm 4 m/S 749 mmHg 53%
    16:00 +19°C° 0 mm 4 m/S 749 mmHg 54%
    17:00 +18°C° 0 mm 4 m/S 749 mmHg 58%
    18:00 +17°C° 0 mm 3 m/S 749 mmHg 63%
    19:00 +17°C° 0 mm 3 m/S 749 mmHg 67%
    20:00 +15°C° 0 mm 2 m/S 750 mmHg 74%
    21:00 +13°C° 0 mm 2 m/S 750 mmHg 80%
    22:00 +11°C° 0 mm 1 m/S 750 mmHg 87%
    23:00 +11°C° 0 mm 1 m/S 750 mmHg 88%

    Morgen, 23 Juni, Samstag

    Zeit Temperatur Niederschläge Wind Luftdruck Luftfeuchtigkeit
    00:00 +10°C° 0 mm 1 m/S 750 mmHg 89%
    01:00 +10°C° 0 mm 1 m/S 750 mmHg 90%
    02:00 +9°C° 0 mm 1 m/S 750 mmHg 91%
    03:00 +9°C° 0 mm 1 m/S 750 mmHg 92%
    04:00 +9°C° 0 mm 1 m/S 750 mmHg 92%
    05:00 +10°C° 0 mm 1 m/S 750 mmHg 88%
    06:00 +12°C° 0 mm 1 m/S 750 mmHg 84%
    07:00 +13°C° 0 mm 1 m/S 750 mmHg 79%
    08:00 +15°C° 0 mm 1 m/S 750 mmHg 71%
    09:00 +17°C° 0 mm 2 m/S 750 mmHg 64%
    10:00 +18°C° 0 mm 2 m/S 750 mmHg 56%
    11:00 +19°C° 0 mm 2 m/S 749 mmHg 52%
    12:00 +20°C° 0 mm 2 m/S 749 mmHg 48%
    13:00 +21°C° 0 mm 3 m/S 749 mmHg 44%
    14:00 +22°C° 0 mm 3 m/S 749 mmHg 45%
    15:00 +22°C° 0 mm 3 m/S 748 mmHg 46%
    16:00 +22°C° 0 mm 3 m/S 748 mmHg 47%
    17:00 +21°C° 0 mm 3 m/S 748 mmHg 52%
    18:00 +20°C° 0 mm 3 m/S 748 mmHg 58%
    19:00 +19°C° 0 mm 2 m/S 748 mmHg 64%
    20:00 +17°C° 0 mm 2 m/S 748 mmHg 68%
    21:00 +16°C° 0 mm 2 m/S 748 mmHg 73%
    22:00 +14°C° 0 mm 2 m/S 749 mmHg 77%
    23:00 +14°C° 0 mm 2 m/S 748 mmHg 78%

    übermorgen, 24 Juni, Sonntag

    Zeit Temperatur Niederschläge Wind Luftdruck Luftfeuchtigkeit
    00:00 +13°C° 0 mm 1 m/S 748 mmHg 80%
    01:00 +13°C° 0 mm 1 m/S 748 mmHg 81%
    02:00 +12°C° 0 mm 1 m/S 748 mmHg 84%
    03:00 +12°C° 0 mm 1 m/S 747 mmHg 87%
    04:00 +11°C° 0 mm 1 m/S 747 mmHg 89%
    05:00 +12°C° 0 mm 1 m/S 747 mmHg 85%
    06:00 +14°C° 0 mm 1 m/S 747 mmHg 80%
    07:00 +15°C° 0 mm 1 m/S 747 mmHg 76%
    08:00 +16°C° 0 mm 1 m/S 747 mmHg 70%
    09:00 +18°C° 0 mm 2 m/S 747 mmHg 65%
    10:00 +19°C° 0 mm 2 m/S 747 mmHg 59%
    11:00 +19°C° 0,1 mm 2 m/S 746 mmHg 59%
    12:00 +20°C° 0,1 mm 2 m/S 746 mmHg 59%
    13:00 +20°C° 0,1 mm 2 m/S 746 mmHg 59%
    14:00 +20°C° 0,1 mm 3 m/S 746 mmHg 59%
    15:00 +21°C° 0,1 mm 3 m/S 746 mmHg 58%
    16:00 +21°C° 0,1 mm 3 m/S 746 mmHg 57%
    17:00 +20°C° 0,1 mm 3 m/S 746 mmHg 62%
    18:00 +20°C° 0,1 mm 2 m/S 746 mmHg 67%
    19:00 +19°C° 0,1 mm 2 m/S 745 mmHg 72%
    20:00 +17°C° 0 mm 2 m/S 746 mmHg 78%
    21:00 +16°C° 0 mm 2 m/S 746 mmHg 83%
    22:00 +14°C° 0 mm 2 m/S 746 mmHg 88%
    23:00 +13°C° 0 mm 1 m/S 746 mmHg 90%

    25 Juni, Montag

    Zeit Temperatur Niederschläge Wind Luftdruck Luftfeuchtigkeit
    00:00 +13°C° 0 mm 1 m/S 746 mmHg 91%
    01:00 +12°C° 0 mm 1 m/S 746 mmHg 93%
    02:00 +12°C° 0 mm 1 m/S 746 mmHg 93%
    03:00 +12°C° 0 mm 1 m/S 746 mmHg 94%
    04:00 +11°C° 0 mm 1 m/S 746 mmHg 94%
    05:00 +13°C° 0 mm 1 m/S 746 mmHg 91%
    06:00 +14°C° 0 mm 1 m/S 746 mmHg 88%
    07:00 +15°C° 0 mm 2 m/S 746 mmHg 84%
    08:00 +17°C° 0 mm 2 m/S 746 mmHg 77%
    09:00 +18°C° 0 mm 2 m/S 746 mmHg 69%
    10:00 +20°C° 0 mm 3 m/S 746 mmHg 61%
    11:00 +21°C° 0 mm 3 m/S 746 mmHg 59%
    12:00 +21°C° 0 mm 3 m/S 746 mmHg 57%
    13:00 +22°C° 0 mm 3 m/S 745 mmHg 55%
    14:00 +22°C° 0 mm 3 m/S 745 mmHg 54%
    15:00 +22°C° 0 mm 4 m/S 745 mmHg 54%
    16:00 +23°C° 0 mm 4 m/S 745 mmHg 53%
    17:00 +22°C° 0 mm 4 m/S 745 mmHg 58%
    18:00 +21°C° 0 mm 3 m/S 745 mmHg 62%
    19:00 +20°C° 0 mm 3 m/S 745 mmHg 67%
    20:00 +18°C° 0 mm 3 m/S 746 mmHg 73%
    21:00 +17°C° 0 mm 2 m/S 746 mmHg 79%
    22:00 +15°C° 0 mm 2 m/S 746 mmHg 85%
    23:00 +14°C° 0 mm 2 m/S 746 mmHg 88%

    26 Juni, Dienstag

    Zeit Temperatur Niederschläge Wind Luftdruck Luftfeuchtigkeit
    00:00 +14°C° 0 mm 2 m/S 746 mmHg 90%
    01:00 +13°C° 0 mm 2 m/S 746 mmHg 93%
    02:00 +13°C° 0 mm 2 m/S 746 mmHg 93%
    03:00 +12°C° 0 mm 2 m/S 745 mmHg 94%
    04:00 +12°C° 0 mm 2 m/S 745 mmHg 94%
    05:00 +13°C° 0 mm 2 m/S 745 mmHg 90%
    06:00 +15°C° 0 mm 2 m/S 745 mmHg 85%
    07:00 +16°C° 0 mm 2 m/S 745 mmHg 81%
    08:00 +18°C° 0 mm 3 m/S 745 mmHg 71%
    09:00 +20°C° 0 mm 3 m/S 745 mmHg 61%
    10:00 +22°C° 0 mm 4 m/S 745 mmHg 52%
    11:00 +23°C° 0 mm 4 m/S 745 mmHg 49%
    12:00 +25°C° 0 mm 4 m/S 745 mmHg 46%
    13:00 +26°C° 0 mm 5 m/S 745 mmHg 43%
    14:00 +27°C° 0 mm 5 m/S 745 mmHg 44%
    15:00 +27°C° 0 mm 5 m/S 745 mmHg 45%
    16:00 +27°C° 0 mm 5 m/S 745 mmHg 46%
    17:00 +26°C° 0 mm 4 m/S 745 mmHg 51%
    18:00 +25°C° 0 mm 4 m/S 745 mmHg 57%
    19:00 +22°C° 0 mm 3 m/S 745 mmHg 63%
    20:00 +21°C° 0 mm 3 m/S 745 mmHg 68%
    21:00 +19°C° 0 mm 3 m/S 745 mmHg 74%
    22:00 +17°C° 0 mm 2 m/S 745 mmHg 80%
    23:00 +16°C° 0 mm 2 m/S 745 mmHg 82%

    27 Juni, Mittwoch

    Zeit Temperatur Niederschläge Wind Luftdruck Luftfeuchtigkeit
    00:00 +15°C° 0 mm 2 m/S 745 mmHg 83%
    01:00 +15°C° 0 mm 2 m/S 745 mmHg 85%
    02:00 +14°C° 0 mm 2 m/S 745 mmHg 86%
    03:00 +14°C° 0 mm 2 m/S 745 mmHg 87%
    04:00 +14°C° 0 mm 2 m/S 745 mmHg 88%
    05:00 +15°C° 0 mm 2 m/S 746 mmHg 83%
    06:00 +16°C° 0 mm 2 m/S 746 mmHg 78%
    07:00 +18°C° 0 mm 2 m/S 746 mmHg 73%
    08:00 +20°C° 0 mm 3 m/S 746 mmHg 65%
    09:00 +22°C° 0 mm 3 m/S 746 mmHg 58%
    10:00 +25°C° 0 mm 4 m/S 746 mmHg 51%
    11:00 +26°C° 0 mm 4 m/S 746 mmHg 48%
    12:00 +27°C° 0 mm 4 m/S 745 mmHg 46%
    13:00 +28°C° 0 mm 4 m/S 745 mmHg 43%
    14:00 +28°C° 0 mm 4 m/S 745 mmHg 44%
    15:00 +28°C° 0 mm 4 m/S 745 mmHg 45%
    16:00 +28°C° 0 mm 4 m/S 745 mmHg 46%
    17:00 +27°C° 0 mm 4 m/S 745 mmHg 52%
    18:00 +26°C° 0 mm 4 m/S 745 mmHg 58%
    19:00 +25°C° 0 mm 3 m/S 745 mmHg 63%
    20:00 +22°C° 0 mm 3 m/S 745 mmHg 69%
    21:00 +20°C° 0 mm 3 m/S 745 mmHg 75%
    22:00 +18°C° 0 mm 2 m/S 745 mmHg 81%
    23:00 +18°C° 0 mm 2 m/S 745 mmHg 84%
    Mehr zeigen